[[{"header":{"parameterUnit":"m.s-1","parameterCategory":1,"la1":30.2992,"la2":30.254,"lo1":-89.0895,"lo2":-89.0443,"dy":0.0025,"dx":0.0025,"nx":19,"ny":19,"refTime":"2026-05-12T03:00:00:Z","depth":0,"parameterNumber":2,"parameterNumberName":"U-component_of_WINDS"},"data":[0,0,0,-4.7081,-4.708,-4.7002,-4.7001,-4.6925,-4.6924,0,0,0,0,0,0,0,0,0,0,0,-4.7122,-4.7122,-4.7082,-4.708,-4.7002,-4.7001,-4.6925,-4.6924,0,0,0,0,0,0,0,0,0,0,0,-4.7122,-4.7122,-4.7122,-4.708,-4.7002,-4.7001,-4.6925,-4.6975,0,0,0,0,0,0,0,0,0,0,-4.7047,-4.7102,-4.7122,-4.7122,-4.708,-4.7002,-4.7001,-4.6977,-4.6972,-4.6971,0,-4.6978,0,-4.6951,-4.6921,-4.6921,0,0,0,-4.7066,-4.7106,-4.707,-4.7122,-4.7079,-4.7002,-4.7033,-4.6974,-4.6968,-4.6965,-4.6977,-4.6973,-4.6949,-4.6921,-4.692,-4.6973,-4.6974,0,0,-4.707,-4.7116,-4.7074,-4.7067,-4.7084,-4.7036,-4.7031,-4.697,-4.6985,-4.6977,-4.6971,-4.6948,-4.692,-4.692,-4.6972,-4.6974,0,0,0,-4.7092,-4.712,-4.7084,-4.7071,-4.7055,-4.7034,-4.7028,-4.6987,-4.6972,-4.697,-4.6947,-4.692,-4.6919,-4.6971,-4.6973,-4.7064,0,0,0,-4.7094,-4.7133,-4.7087,-4.7114,-4.7057,-4.7021,-4.7048,-4.6977,-4.6968,-4.6948,-4.692,-4.6919,-4.697,-4.6972,-4.7059,-4.7098,0,0,0,-4.7121,-4.7135,-4.7131,-4.7117,-4.7085,-4.7021,-4.7002,-4.6974,-4.6955,-4.6921,-4.6919,-4.697,-4.6972,-4.7055,-4.7091,-4.7126,0,0,0,-4.7162,-4.721,-4.7133,-4.7177,-4.7086,-4.7079,-4.7002,-4.6993,-4.6974,-4.692,-4.697,-4.6973,-4.7053,-4.7086,-4.7122,-4.7164,-4.7186,0,0,-4.7248,-4.7222,-4.7244,-4.7173,-4.7192,-4.7087,-4.7117,-4.7055,-4.7008,-4.6987,-4.6987,-4.706,-4.709,-4.7125,-4.7295,-4.7313,0,0,0,-4.7287,-4.7304,-4.7299,-4.7285,-4.7242,-4.7207,-4.7136,-4.7113,-4.7094,-4.7008,-4.7081,-4.7097,-4.7116,-4.7134,-4.7149,-4.7162,-4.6983,-4.6983,-4.6983,-4.7472,-4.7413,-4.7447,-4.7379,-4.7366,-4.7295,-4.7278,-4.7235,-4.7175,-4.7194,-4.7187,-4.7297,-4.732,-4.7331,-4.7346,-4.7204,-4.7205,-4.7205,-4.7205,-4.7592,-4.7607,-4.7531,-4.7536,-4.7473,-4.7475,-4.7408,-4.7366,-4.7358,-4.7297,-4.731,-4.7249,-4.7353,-4.7362,-4.7212,-4.721,-4.721,-4.7209,-4.7209,-4.7707,-4.7704,-4.7678,-4.7654,-4.7642,-4.7569,-4.7567,-4.7508,-4.7451,-4.7465,-4.7451,-4.745,-4.744,-4.7463,-4.7463,-4.7464,-4.7464,-4.7464,-4.7464,-4.7836,-4.7804,-4.781,-4.777,-4.7755,-4.7727,-4.7657,-4.7639,-4.7603,-4.756,-4.756,-4.7499,-4.7375,-4.7345,-4.747,-4.7469,-4.7468,-4.7468,-4.7467,-4.7979,-4.7938,-4.7948,-4.7933,-4.7882,-4.7874,-4.78,-4.7769,-4.7746,-4.7746,-4.7683,-4.7601,-4.7569,-4.7556,-4.7531,-4.7696,-4.7696,-4.7696,-4.7696,-4.8075,-4.8055,-4.8053,-4.8033,-4.8007,-4.7942,-4.7954,-4.79,-4.7836,-4.7818,-4.7786,-4.7747,-4.7737,-4.7711,-4.7695,-4.767,-4.7867,-4.7867,-4.7867,-4.816,-4.8134,-4.8157,-4.8098,-4.8054,-4.8017,-4.8027,-4.8005,-4.7924,-4.7873,-4.7802,-4.7795,-4.7732,-4.7715,-4.7661,-4.7638,-4.7591,0,0]},{"header":{"parameterUnit":"m.s-1","parameterCategory":1,"la1":30.2992,"la2":30.254,"lo1":-89.0895,"lo2":-89.0443,"dy":0.0025,"dx":0.0025,"nx":19,"ny":19,"refTime":"2026-05-12T03:00:00:Z","depth":0,"parameterNumber":3,"parameterNumberName":"V-component_of_WINDS"},"data":[0,0,0,-2.5967,-2.5969,-2.607,-2.607,-2.6208,-2.621,0,0,0,0,0,0,0,0,0,0,0,-2.5943,-2.5944,-2.5967,-2.597,-2.607,-2.607,-2.6208,-2.621,0,0,0,0,0,0,0,0,0,0,0,-2.5943,-2.5944,-2.5945,-2.597,-2.6069,-2.607,-2.6208,-2.6129,0,0,0,0,0,0,0,0,0,0,-2.603,-2.6013,-2.5944,-2.5945,-2.5971,-2.6069,-2.607,-2.6125,-2.6134,-2.6167,0,-2.6198,0,-2.6206,-2.622,-2.622,0,0,0,-2.5966,-2.6006,-2.6027,-2.5946,-2.5972,-2.6069,-2.6023,-2.613,-2.614,-2.6179,-2.62,-2.6205,-2.6208,-2.6221,-2.6221,-2.6428,-2.6429,0,0,-2.596,-2.5964,-2.6021,-2.6034,-2.6019,-2.602,-2.6027,-2.6136,-2.6159,-2.62,-2.6208,-2.6211,-2.6222,-2.6223,-2.6427,-2.6428,0,0,0,-2.5947,-2.5961,-2.598,-2.6029,-2.6046,-2.6023,-2.603,-2.6154,-2.616,-2.6209,-2.6212,-2.6222,-2.6224,-2.6426,-2.6427,-2.6489,0,0,0,-2.5943,-2.5953,-2.5977,-2.5981,-2.6044,-2.6101,-2.6046,-2.6152,-2.6164,-2.6212,-2.6222,-2.6226,-2.6424,-2.6427,-2.6485,-2.6519,0,0,0,-2.5935,-2.5952,-2.5968,-2.5981,-2.6024,-2.6099,-2.6111,-2.6155,-2.6167,-2.622,-2.6226,-2.6423,-2.6426,-2.6481,-2.6512,-2.6575,0,0,0,-2.5927,-2.6021,-2.5969,-2.6076,-2.6023,-2.6136,-2.611,-2.6194,-2.6248,-2.6223,-2.6425,-2.6427,-2.648,-2.6508,-2.6571,-2.6631,-2.6655,0,0,-2.6048,-2.6036,-2.6098,-2.6055,-2.6178,-2.6121,-2.6254,-2.6298,-2.63,-2.6385,-2.639,-2.6486,-2.6511,-2.6575,-2.679,-2.6809,0,0,0,-2.6138,-2.6184,-2.6215,-2.6266,-2.6303,-2.6338,-2.6362,-2.6379,-2.6451,-2.6344,-2.6526,-2.654,-2.6577,-2.6606,-2.6622,-2.6655,-2.644,-2.644,-2.6439,-2.6317,-2.6314,-2.6418,-2.6427,-2.6477,-2.6501,-2.6542,-2.6569,-2.655,-2.6593,-2.6619,-2.675,-2.6783,-2.6796,-2.6829,-2.6649,-2.6649,-2.6649,-2.665,-2.6496,-2.656,-2.6534,-2.6626,-2.6622,-2.6699,-2.6727,-2.6711,-2.6783,-2.673,-2.6762,-2.6706,-2.6817,-2.6847,-2.6654,-2.6653,-2.6653,-2.6652,-2.6652,-2.6614,-2.6644,-2.6663,-2.6738,-2.6795,-2.6801,-2.6872,-2.6866,-2.686,-2.6892,-2.692,-2.6919,-2.6919,-2.6905,-2.6906,-2.6906,-2.6907,-2.6907,-2.6907,-2.6729,-2.6749,-2.6809,-2.6856,-2.6889,-2.6931,-2.6957,-2.699,-2.7024,-2.7014,-2.7014,-2.6993,-2.6828,-2.6788,-2.6914,-2.6913,-2.6912,-2.6912,-2.6911,-2.6915,-2.6872,-2.6965,-2.6998,-2.7054,-2.7113,-2.7104,-2.7171,-2.7196,-2.7232,-2.7204,-2.7082,-2.7069,-2.7056,-2.7023,-2.7203,-2.7203,-2.7203,-2.7203,-2.7016,-2.7008,-2.7103,-2.7156,-2.7208,-2.7209,-2.7316,-2.7338,-2.7353,-2.7369,-2.7342,-2.7297,-2.7283,-2.7279,-2.7261,-2.723,-2.7458,-2.7458,-2.7458,-2.713,-2.7128,-2.722,-2.7234,-2.7278,-2.7316,-2.7417,-2.748,-2.7488,-2.7469,-2.7382,-2.7372,-2.7299,-2.7275,-2.7254,-2.7226,-2.7169,0,0]}]]